User: anonymous   Login
Location: Unspecified
(0.0000°N, 0.0000°E)
Time: 22:03:39
(UTC+00:00)
Language:

Altair - Orbit

View from above orbital plane
View from above orbital plane
View from above satellite
View from above satellite

Ground track
Ground track

The orbit data is extracted from the following two-line orbital elements,

1 00050U 60009B   15208.47321057 -.00000086  00000-0  80809-5 0  9990
2 00050 047.2310 267.3847 0113012 040.0380 320.8675 12.20091760452497
Epoch (UTC): 27 July 2015 11:21:25
Eccentricity: 0.0113012
inclination: 47.2310°
perigee height: 1502 km
apogee height: 1682 km
right ascension of ascending node: 267.3847°
argument of perigee: 40.0380°
revolutions per day: 12.20091760
mean anomaly at epoch: 320.8675°
orbit number at epoch: 45249

The dashed part of the orbit path shows where the satellite is in the earth's shadow,  

DLR